Milton, FL

10:34 PM CST on February 26, 2017 (GMT -0600)
Whiting Field Naval Air Station (South)

Weather History for KNDZ - February, 2012

Change the Weather History Date:

Wednesday, February 29, 2012

  Actual Average (KNSE) Record (KNSE)
Temperature  
Mean Temperature 70 °F -  
Max Temperature 75 °F 65 °F 77 °F (2012)
Min Temperature 64 °F 46 °F 35 °F (2008)
Cooling Degree Days 4    
Growing Degree Days 20 (Base 50)    
Moisture  
Dew Point 64 °F    
Average Humidity 87    
Maximum Humidity 96    
Minimum Humidity 69    
Precipitation  
Precipitation 0.00 in - - ()
Sea Level Pressure  
Sea Level Pressure 30.10 in    
Wind  
Wind Speed 8 mph (South)    
Max Wind Speed 15 mph    
Max Gust Speed 22 mph    
Visibility 8 miles    
Events      
Averages and records for this station are not official NWS values.
T = Trace of Precipitation, MM = Missing Value Source: NWS Daily Summary

Daily Weather History Graph

Daily Weather History Graph

Search for Another Location

Airport or City:

Trip Planner

Search our weather history database for the weather conditions in past years. The results will help you decide how hot, cold, wet, or windy it might be!

Date:

Astronomy

Feb. 29, 2012 Rise Set
Actual Time 6:14 AM CST 5:46 PM CST
Civil Twilight 5:50 AM CST 6:10 PM CST
Nautical Twilight 5:22 AM CST 6:38 PM CST
Astronomical Twilight 4:54 AM CST 7:06 PM CST
Moon 10:36 AM CST (2/29) 12:02 AM CST (2/29)
Length of Visible Light 12h 19m
Length of Day
11h 31m
Waxing Crescent, 47% of the Moon is Illuminated
Feb 29
Waxing Crescent
Feb 29
First Quarter
Mar 8
Full
Mar 14
Last Quarter
Mar 22
New

Hourly Weather History & Observations

Time (CST) Temp. Dew Point Humidity Pressure Visibility Wind Dir Wind Speed Gust Speed Precip Events Conditions
12:56 AM 64.0 °F 63.0 °F 96% 30.14 in 10.0 mi SE 6.9 mph - N/A   Overcast
1:56 AM 64.0 °F 63.0 °F 96% 30.14 in 10.0 mi SSE 3.5 mph - N/A   Overcast
2:34 AM 64.4 °F 62.6 °F 94% 30.18 in 10.0 mi Calm Calm - N/A   Overcast
2:56 AM 64.0 °F 62.1 °F 93% 30.13 in 10.0 mi ESE 5.8 mph - N/A   Overcast
3:56 AM 64.0 °F 62.1 °F 93% 30.14 in 10.0 mi ESE 3.5 mph - N/A   Overcast
4:06 AM 64.4 °F 62.6 °F 94% 30.18 in 10.0 mi ESE 4.6 mph - N/A   Overcast
4:40 AM 64.4 °F 62.6 °F 94% 30.18 in 10.0 mi ESE 3.5 mph - N/A   Overcast
4:56 AM 64.0 °F 62.1 °F 93% 30.14 in 10.0 mi ESE 3.5 mph - N/A   Overcast
5:19 AM 64.4 °F 62.6 °F 94% 30.17 in 10.0 mi SE 5.8 mph - N/A   Overcast
5:56 AM 64.0 °F 62.1 °F 93% 30.13 in 10.0 mi SSE 5.8 mph - N/A   Overcast
6:56 AM 64.9 °F 62.1 °F 90% 30.12 in 10.0 mi SSE 6.9 mph - N/A   Overcast
7:56 AM 66.9 °F 63.0 °F 87% 30.12 in 10.0 mi SE 10.4 mph - N/A   Overcast
8:18 AM 66.2 °F 62.6 °F 88% 30.17 in 10.0 mi SSE 9.2 mph - N/A   Overcast
8:35 AM 68.0 °F 62.6 °F 83% 30.17 in 10.0 mi SE 9.2 mph - N/A   Overcast
8:56 AM 68.0 °F 63.0 °F 84% 30.13 in 10.0 mi SSE 6.9 mph - N/A   Overcast
9:12 AM 69.8 °F 64.4 °F 83% 30.17 in 10.0 mi South 9.2 mph - N/A   Overcast
9:41 AM 69.8 °F 62.6 °F 78% 30.18 in 10.0 mi South 9.2 mph - N/A   Overcast
9:56 AM 70.0 °F 64.0 °F 81% 30.13 in 10.0 mi South 11.5 mph - N/A   Overcast
10:24 AM 71.6 °F 64.4 °F 78% 30.17 in 10.0 mi South 11.5 mph - N/A   Overcast
10:56 AM 73.9 °F 64.0 °F 71% 30.12 in 10.0 mi South 11.5 mph 20.7 mph N/A   Mostly Cloudy
11:56 AM 75.0 °F 64.0 °F 69% 30.10 in 10.0 mi South 10.4 mph - N/A   Overcast
12:07 PM 73.4 °F 64.4 °F 73% 30.13 in 10.0 mi South 13.8 mph 19.6 mph N/A   Overcast
12:37 PM 75.2 °F 64.4 °F 69% 30.11 in 10.0 mi South 12.7 mph - N/A   Overcast
12:54 PM 73.4 °F 64.4 °F 73% 30.11 in 10.0 mi South 11.5 mph - N/A   Overcast
12:56 PM 73.9 °F 64.0 °F 71% 30.06 in 10.0 mi South 15.0 mph - N/A   Overcast
1:06 PM 73.4 °F 64.4 °F 73% 30.10 in 10.0 mi South 15.0 mph 21.9 mph N/A   Overcast
1:56 PM 73.0 °F 64.9 °F 76% 30.05 in 10.0 mi South 13.8 mph 18.4 mph N/A   Overcast
2:54 PM 71.6 °F 64.4 °F 78% 30.09 in 10.0 mi South 10.4 mph - N/A   Overcast
2:56 PM 71.1 °F 64.9 °F 81% 30.05 in 10.0 mi South 11.5 mph - N/A   Overcast
3:56 PM 71.1 °F 66.0 °F 84% 30.04 in 10.0 mi South 8.1 mph - N/A   Overcast
4:56 PM 70.0 °F 66.0 °F 87% 30.02 in 10.0 mi South 11.5 mph 17.3 mph N/A   Overcast
5:56 PM 69.1 °F 66.0 °F 90% 30.03 in 10.0 mi South 9.2 mph - N/A   Overcast
6:56 PM 68.0 °F 66.0 °F 93% 30.01 in 10.0 mi South 10.4 mph - N/A   Overcast
7:27 PM 68.0 °F 66.2 °F 94% 30.06 in 10.0 mi South 11.5 mph - N/A   Overcast
7:56 PM 68.0 °F 66.0 °F 93% 30.02 in 8.0 mi South 9.2 mph 17.3 mph N/A   Overcast
8:56 PM 68.0 °F 66.9 °F 96% 30.02 in 6.0 mi South 6.9 mph - N/A   Overcast
9:56 PM 69.1 °F 68.0 °F 96% 30.01 in 3.0 mi SSW 6.9 mph - N/A   Overcast
10:04 PM 69.8 °F 68.0 °F 94% 30.05 in 2.0 mi SSW 9.2 mph - N/A   Overcast
10:12 PM 69.8 °F 68.0 °F 94% 30.05 in 1.8 mi SSW 8.1 mph - N/A   Overcast
10:53 PM 68.0 °F 66.2 °F 94% 30.03 in 0.8 mi South 10.4 mph - N/A   Mist
10:56 PM 68.0 °F 66.9 °F 96% 29.99 in 0.8 mi South 12.7 mph 19.6 mph N/A   Mist
11:40 PM 68.0 °F 66.2 °F 94% 30.03 in 1.0 mi SW 6.9 mph - N/A   Mist
11:56 PM 68.0 °F 66.9 °F 96% 29.98 in 1.2 mi SSW 6.9 mph - N/A   Overcast